FW2571 Weather Reports


time (UTC)temp
C
wind
direction
speed
KPH
gust
KPH
rain 1hr
cm
rain 24hr
cm
rain mn
cm
humidity
%
barometer
mb
20260505140115 21 191 9.7 22.5 0.00 0.00 0.00 60 1016.3
20260505124548 18 203 4.8 22.5 0.00 0.00 0.00 68 1016.4
20260505123051 18 199 9.7 24.1 0.00 0.00 0.00 68 1016.4
20260505121544 18 184 9.7 22.5 0.00 0.00 0.00 69 1016.2
20260505120049 17 256 9.7 25.7 0.00 0.00 0.00 70 1016.2
20260505114550 17 198 11.3 20.9 0.00 0.00 0.00 72 1016.0
20260505113039 16 216 6.4 20.9 0.00 0.00 0.00 73 1015.9
20260505111538 16 151 4.8 17.7 0.00 0.00 0.00 73 1015.8
20260505101542 15 188 3.2 11.3 0.00 0.00 0.00 76 1015.5
20260505100011 15 209 1.6 11.3 0.00 0.00 0.00 76 1015.4
20260505094510 15 143 4.8 14.5 0.00 0.00 0.00 76 1015.3
20260505093008 15 156 3.2 12.9 0.00 0.00 0.00 75 1015.3
20260505091507 15 181 3.2 11.3 0.00 0.00 0.00 75 1015.3
20260505090104 16 191 4.8 16.1 0.00 0.00 0.00 74 1015.0
20260505084501 16 185 4.8 11.3 0.00 0.00 0.00 73 1015.0
20260505083103 16 174 4.8 19.3 0.00 0.00 0.00 73 1015.0
20260505081606 16 182 8.0 17.7 0.00 0.00 0.00 73 1015.0
20260505080058 16 184 6.4 19.3 0.00 0.00 0.00 72 1014.8
20260505074554 16 202 8.0 19.3 0.00 0.00 0.00 72 1014.8
20260505073059 16 169 4.8 20.9 0.00 0.00 0.00 72 1014.5
20260505071558 16 189 6.4 20.9 0.00 0.00 0.00 71 1014.5
20260505070053 16 202 8.0 16.1 0.00 0.00 0.00 71 1014.4
20260505064548 17 188 9.7 20.9 0.00 0.00 0.00 70 1014.3
20260505063043 17 205 9.7 24.1 0.00 0.00 0.00 70 1014.4
20260505061541 17 151 8.0 22.5 0.00 0.00 0.00 70 1014.6
20260505060046 17 150 8.0 20.9 0.00 0.00 0.00 70 1014.5
20260505054536 17 158 9.7 22.5 0.00 0.00 0.00 70 1014.7
20260505053033 17 171 8.0 20.9 0.00 0.00 0.00 69 1014.8
20260505051531 17 208 6.4 24.1 0.00 0.00 0.00 69 1014.7
20260505041524 18 207 8.0 27.4 0.00 0.00 0.00 69 1014.5
20260505040018 18 160 6.4 14.5 0.00 0.00 0.00 69 1014.4
20260505034518 18 175 4.8 20.9 0.00 0.00 0.00 68 1014.3
20260505033017 18 162 6.4 22.5 0.00 0.00 0.00 67 1014.3
20260505031516 18 210 9.7 24.1 0.00 0.00 0.00 65 1014.4
20260505030015 18 207 8.0 22.5 0.00 0.00 0.00 63 1014.3
20260505024514 18 186 6.4 19.3 0.00 0.00 0.00 61 1014.1
20260505023020 19 146 6.4 17.7 0.00 0.00 0.00 58 1014.0
20260505021515 19 164 0.0 4.8 0.00 0.00 0.00 54 1013.7
20260505020112 19 182 4.8 11.3 0.00 0.00 0.00 52 1013.7
20260505014514 18 203 0.0 3.2 0.00 0.00 0.00 54 1013.6
20260505013011 18 166 0.0 0.0 0.00 0.00 0.00 56 1013.4
20260505011600 17 160 0.0 0.0 0.00 0.00 0.00 59 1013.3
20260505010105 17 206 0.0 0.0 0.00 0.00 0.00 58 1013.5
20260505004553 18 162 0.0 0.0 0.00 0.00 0.00 59 1013.4
20260505003056 19 174 0.0 0.0 0.00 0.00 0.00 55 1013.3
20260505001551 20 195 0.0 1.6 0.00 0.00 0.00 50 1013.0
20260505000059 21 198 0.0 4.8 0.00 0.00 0.00 47 1012.8
20260504234549 22 186 0.0 6.4 0.00 0.00 0.00 45 1012.9
20260504233055 22 214 3.2 16.1 0.00 0.00 0.00 44 1012.7
20260504231547 23 207 4.8 14.5 0.00 0.00 0.00 43 1012.6
20260504230051 23 211 1.6 11.3 0.00 0.00 0.00 41 1012.5
20260504224546 23 179 4.8 19.3 0.00 0.00 0.00 40 1012.4
20260504223052 24 211 11.3 16.1 0.00 0.00 0.00 39 1012.5
20260504221544 25 167 4.8 16.1 0.00 0.00 0.00 38 1012.5
20260504220045 25 182 4.8 12.9 0.00 0.00 0.00 39 1012.5
20260504214546 25 174 6.4 25.7 0.00 0.00 0.00 38 1012.5
20260504213042 25 196 6.4 19.3 0.00 0.00 0.00 38 1012.6
20260504211538 25 217 8.0 20.9 0.00 0.00 0.00 38 1012.6
20260504210037 25 178 4.8 22.5 0.00 0.00 0.00 38 1012.7
20260504204535 25 129 1.6 17.7 0.00 0.00 0.00 38 1012.6
20260504203036 25 196 6.4 17.7 0.00 0.00 0.00 37 1012.8
20260504201532 25 162 3.2 11.3 0.00 0.00 0.00 36 1012.9
20260504200029 25 153 11.3 19.3 0.00 0.00 0.00 35 1013.2
20260504194526 24 207 3.2 16.1 0.00 0.00 0.00 37 1013.3
20260504193025 24 216 8.0 19.3 0.00 0.00 0.00 36 1013.5
20260504191523 23 211 6.4 19.3 0.00 0.00 0.00 37 1013.6
20260504190019 23 210 3.2 19.3 0.00 0.00 0.00 35 1013.9
20260504184520 24 179 12.9 24.1 0.00 0.00 0.00 36 1013.9
20260504183015 23 165 4.8 17.7 0.00 0.00 0.00 39 1014.2
20260504181523 22 203 0.0 14.5 0.00 0.00 0.00 40 1014.3
20260504180011 23 191 3.2 14.5 0.00 0.00 0.00 43 1014.6
20260504174510 22 214 3.2 16.1 0.00 0.00 0.00 38 1014.6
20260504173007 22 359 1.6 17.7 0.00 0.00 0.00 36 1014.8
20260504171508 22 223 8.0 20.9 0.00 0.00 0.00 38 1015.0
20260504160103 21 212 1.6 14.5 0.00 0.00 0.00 45 1015.9